Theta_e
328 328 326 324 323 323 322 326 329 332 332 332 341 340 341 341 341 343 343 347 345 344 345 347 348 348 350 352 352 351 352 353
329 328 327 325 325 322 323 324 328 330 332 335 335 341 341 339 340 342 342 345 347 345 344 345 346 346 349 351 352 352 352 353
328 328 326 325 324 322 322 324 326 329 331 331 336 342 341 340 340 340 342 343 348 347 345 345 347 347 348 351 353 354 353 352
326 327 328 326 325 322 323 323 325 324 327 330 330 339 341 340 339 340 340 345 348 348 347 347 347 349 348 349 351 352 353 352
325 325 327 327 326 324 323 321 323 327 327 327 328 337 337 340 341 340 339 345 348 348 349 348 348 349 349 348 349 351 352 352
326 326 328 330 328 327 324 324 324 323 323 325 335 338 334 337 339 339 340 339 348 348 348 349 349 349 350 350 349 349 350 351
326 327 328 328 330 328 326 324 325 324 324 324 327 338 337 339 339 338 337 338 345 348 347 348 348 348 349 350 350 348 349 350
329 327 327 327 329 331 328 327 327 327 326 327 328 338 338 338 338 337 336 343 344 349 347 346 346 346 348 349 350 348 348 347
327 329 330 327 327 329 331 329 328 327 326 327 327 332 337 340 337 336 336 338 343 344 347 346 346 345 346 346 349 349 347 348
327 331 333 331 330 330 331 332 328 327 327 328 328 331 331 330 331 334 331 339 340 338 340 348 347 346 346 347 348 349 347 347
329 329 329 330 329 332 331 330 333 336 335 336 338 332 330 331 330 330 329 334 334 341 339 342 345 350 347 347 348 348 348 346
327 328 329 329 330 331 336 338 342 341 340 340 338 336 335 339 338 336 332 330 330 336 337 340 343 346 351 351 348 348 347 347
327 326 328 330 328 335 338 338 341 341 342 342 341 340 339 337 335 334 336 333 331 334 333 335 338 345 350 355 352 350 347 349
330 330 332 337 335 336 336 343 343 341 340 340 339 338 336 337 337 332 335 341 334 332 329 329 333 341 348 356 355 352 350 352
332 341 338 340 341 340 346 347 349 349 347 345 349 350 351 353 352 350 347 345 340 334 333 334 336 346 349 355 358 360 356 355
335 335 336 337 334 343 342 342 343 345 346 346 347 349 352 353 354 354 354 355 357 356 358 360 355 354 354 358 358 362 362 362
334 336 334 340 341 340 339 337 339 339 340 343 345 345 347 348 351 354 356 357 357 356 358 359 360 361 362 361 362 362 363 364
336 328 330 331 333 336 335 333 333 336 335 337 339 339 344 345 347 349 351 351 356 359 359 360 360 361 361 360 360 361 361 356
331 326 325 324 326 327 328 328 329 328 325 329 335 337 339 342 345 346 347 349 351 350 358 359 359 359 359 357 356 354 352 351
Wind_Speed
24 20 18 11 21 14 5 8 6 8 9 11 15 19 16 25 31 38 38 37 51 55 56 58 56 53 50 49 47 42 38 33
21 22 17 19 6 11 14 15 19 16 10 12 8 18 14 12 20 32 33 45 49 54 56 57 58 55 51 49 48 45 40 36
15 19 23 12 17 12 7 13 12 10 16 8 10 16 16 18 32 37 51 46 48 55 57 57 56 55 54 51 48 47 43 39
25 17 24 24 13 11 9 6 4 8 15 9 13 7 25 31 36 37 26 51 49 54 53 55 54 55 57 54 51 47 44 41
17 17 19 26 19 14 15 5 12 5 14 18 17 3 6 4 14 29 26 33 47 50 51 56 54 54 56 56 52 49 45 43
19 19 5 9 22 20 17 13 16 22 14 18 5 7 14 25 30 18 32 23 46 48 55 56 56 53 54 56 53 49 47 45
26 19 14 24 14 25 22 21 16 13 16 14 10 9 9 23 25 28 12 16 37 47 53 53 54 54 53 53 53 48 46 46
17 26 25 26 19 20 25 22 19 17 19 6 7 26 18 21 26 29 18 24 34 41 50 53 53 54 55 54 54 50 46 46
8 7 5 20 28 18 11 17 18 17 18 7 9 6 8 11 12 11 18 21 31 35 40 48 51 50 55 55 55 52 48 46
6 6 8 7 10 15 15 8 12 10 9 11 11 20 15 12 6 7 16 22 34 33 29 32 46 51 49 55 57 55 51 49
5 11 2 7 7 5 7 13 2 5 5 6 15 11 9 11 19 26 25 32 18 26 30 30 34 38 51 54 58 57 55 52
3 7 15 3 5 6 5 3 7 10 9 8 9 3 4 21 15 6 14 32 30 25 28 38 35 38 40 49 56 60 58 56
5 5 5 3 13 5 7 6 7 15 10 10 4 0 13 19 21 18 15 18 33 46 36 26 27 38 42 45 52 56 59 54
4 3 4 4 5 7 7 12 12 13 10 5 6 10 14 17 19 22 18 10 21 33 41 38 31 36 46 46 46 49 49 43
9 3 1 18 11 12 21 24 17 18 12 8 19 20 20 25 17 6 2 3 12 21 30 32 35 38 42 41 40 36 39 39
7 8 10 6 5 27 25 26 20 18 18 19 22 18 21 21 19 15 11 13 16 22 24 21 31 35 35 36 36 32 35 36
7 8 25 19 21 27 25 19 19 21 22 25 25 24 20 18 17 15 15 16 20 23 25 24 19 22 28 32 35 35 37 35
3 13 8 18 21 20 26 23 23 23 25 25 24 25 25 24 19 14 9 7 12 25 28 28 27 29 31 33 33 35 33 26
4 16 29 22 40 28 30 23 22 25 27 21 18 21 23 22 20 16 12 9 2 5 21 25 28 27 25 24 24 21 23 26
Wind_Direction
227 238 213 231 215 222 266 257 263 236 267 261 205 222 190 179 180 187 214 197 196 200 203 201 201 206 211 213 213 216 219 221
240 223 236 209 191 203 223 231 245 251 245 241 230 204 174 182 198 206 201 206 195 197 202 206 204 205 210 217 216 215 217 220
227 218 214 226 219 226 194 221 234 240 249 247 232 179 176 196 199 196 202 200 193 198 201 208 203 203 207 212 215 215 216 219
249 257 208 216 206 203 223 263 253 237 256 261 242 177 193 191 192 199 189 193 191 195 194 200 201 203 206 210 215 219 219 220
248 261 253 210 210 200 219 168 235 192 251 251 256 151 103 171 214 209 225 196 185 187 189 195 200 202 204 209 214 218 220 223
222 233 235 224 206 202 198 219 236 242 259 271 282 219 181 210 230 203 239 212 189 184 189 193 198 203 204 208 213 217 221 224
214 221 224 240 233 204 205 210 206 235 230 242 236 218 212 192 194 224 231 205 189 176 185 194 198 204 207 209 208 216 219 224
206 211 219 241 241 237 209 216 228 232 251 218 229 214 207 210 194 194 225 201 189 184 192 198 202 205 206 210 209 210 218 223
206 175 233 236 231 245 245 216 202 214 235 222 263 224 184 214 202 185 222 219 194 195 198 203 206 212 209 211 211 209 216 221
157 132 209 244 194 218 238 240 216 202 189 206 209 232 218 228 172 247 292 239 209 207 198 203 211 213 219 213 210 211 214 219
160 193 315 275 260 212 215 249 227 91 103 92 25 248 232 219 211 212 240 246 248 205 211 210 206 209 217 214 214 212 215 217
177 173 217 183 244 273 94 188 107 100 78 55 48 42 275 343 354 329 236 226 239 243 253 220 211 210 210 214 214 213 216 220
188 196 275 174 229 77 143 231 95 90 75 64 87 197 327 338 323 310 320 240 222 215 225 230 231 223 211 212 214 220 215 215
329 158 255 1 71 189 191 72 80 75 58 30 356 339 332 316 302 299 285 268 235 221 231 236 234 222 210 210 217 210 208 210
315 325 131 64 76 60 99 82 59 74 62 72 69 66 54 46 34 37 97 197 236 231 223 218 222 206 204 205 206 202 201 201
302 342 64 37 62 94 84 69 78 72 78 94 90 82 78 73 65 58 64 135 153 162 167 167 184 194 201 195 196 188 184 190
284 14 339 60 80 94 88 78 82 80 82 87 92 82 82 78 73 77 94 113 141 154 152 153 167 175 178 178 183 178 180 181
18 359 282 22 61 84 81 78 79 84 76 79 88 87 93 89 85 88 82 104 139 127 138 143 156 159 165 172 176 172 173 192
152 66 46 4 58 74 87 82 78 75 70 80 84 94 94 95 94 93 69 55 68 151 125 133 136 139 149 157 167 182 195 181